Downloads

 /Hard Songs Megapack Volume 10/ 
  • Folders: 0
  • Files: 52 : 186.6 M
I FILENAME FILESIZE FILEDATE HITS
  1000 BPM.rar 1.8 M 2010-03-20 14:37:44 9
  400 BPM Speedcore.rar 1.4 M 2010-03-20 14:37:39 8
  Almost Again.rar 4.0 M 2010-03-20 14:37:49 14
  Arkanoid.rar 3.2 M 2010-03-20 14:37:52 13
  Balloon Fever SHD mix.rar 3.0 M 2010-03-20 14:37:55 5
  Between Shit And Piss We Are Born.rar 5.3 M 2010-03-20 14:38:00 14
  CaptivAte CHIKAI.rar 1.6 M 2010-03-20 14:38:02 5
  Circus Galop.rar 8.8 M 2010-03-20 14:38:12 6
  Cloud Control.rar 3.0 M 2010-03-20 14:38:13 6
  Contact me & Submissions.txt 222 2010-03-19 23:14:47 99
  Contract.rar 6.6 M 2010-03-20 14:38:21 5
  Cry of the Blackbirds.rar 3.6 M 2010-03-20 14:38:24 11
  Dashed Hopes III.rar 676.6 K 2010-03-20 14:38:25 9
  DIST SQUAD.rar 3.0 M 2010-03-20 14:38:28 5
  Dossar mp3 player part 2.rar 2.3 M 2010-03-20 14:38:30 11
  Dossar mp3 player part 3.rar 2.4 M 2010-03-20 14:38:33 6
  Downfall.rar 4.3 M 2010-03-20 14:38:37 14
  Epic Moon.rar 3.5 M 2010-03-20 14:38:40 5
  Eye For An Eye.rar 4.3 M 2010-03-20 14:38:43 5
  Final Destination.rar 1.9 M 2010-03-20 14:38:45 8
  FR&LG Final Battle.rar 2.4 M 2010-03-20 14:38:48 7
  Gaussian Mist 2.rar 8.0 M 2010-03-20 14:38:55 14
  Got A feeling Statik.rar 5.0 M 2010-03-20 14:39:00 5
  grind4.rar 2.0 M 2010-03-20 14:39:02 5
  Guitar Speed World Record 2008.rar 9.7 M 2010-03-20 14:39:14 14
  Hall of the Mountain King.rar 5.2 M 2010-03-20 14:39:19 14
  Hard Songs Megapack Volume 10.png 113.3 K 2010-03-22 15:15:57 79
  Horse & Goat.rar 566.5 K 2010-03-20 14:39:19 6
  Jump yourself.rar 2.1 M 2010-03-20 14:39:23 11
  LIFE.rar 4.4 M 2010-03-20 14:39:27 4
  Losing Touch.rar 3.9 M 2010-03-20 14:39:31 5
  Night of Nights.rar 2.1 M 2010-03-20 14:39:33 6
  No (Aussie Abmient Dub Remix).rar 4.1 M 2010-03-20 14:39:37 6
  One More Cutie.rar 6.6 M 2010-03-20 14:39:45 6
  Operation Ground and Pound.rar 10.9 M 2010-03-20 14:39:58 5
  Pandemonic Hyperblast.rar 5.4 M 2010-03-20 14:40:04 13
  Pink Fuzzy Bunnies.rar 2.5 M 2010-03-20 14:40:05 4
  Pokemon Battle Imaging No.2.rar 3.0 M 2010-03-20 14:40:09 13
  Prelude No.7 Book I.rar 3.1 M 2010-03-20 14:40:12 14
  Ranger Elite.rar 4.1 M 2010-03-20 14:40:16 6
  Rave Loop 2 (Extended Mix).rar 896.9 K 2010-03-20 14:40:17 5
  Readme & Songlist.txt 2.8 K 2010-03-19 23:48:43 151
  Runny Mornings.rar 2.4 M 2010-03-20 14:40:20 5
  Samurai Hardbeat.rar 7.6 M 2010-03-20 14:40:30 16
  samurai's mp3 player aka linus's bullshit v2.rar 6.5 M 2010-03-20 14:40:37 5
  Sonic the Hedgehog 3 and Knuckles - 51 Doomsday Zone.rar 2.4 M 2010-03-20 14:40:39 5
  Static TV.rar 558.7 K 2010-03-20 14:40:40 4
  Terastream.rar 2.6 M 2010-03-20 14:40:45 6
  The Pervert.rar 5.5 M 2010-03-20 14:40:51 5
  The Prototype DUMP#HANDSTREAM.rar 2.6 M 2010-03-20 14:40:53 5
  Ubertreffen.rar 3.0 M 2010-03-20 14:40:56 13
  Xecus.rar 2.5 M 2010-03-20 14:41:01 5
 

 
Powered by HFS 2.3k
 
  LOGIN
  GO TO ROOT
  GO BACK
  TOP OF PAGE